NW Arkansas Airport, AR

10:53 AM CST on February 24, 2018 (GMT -0600)
Northwest Arkansas Regional

Weather History for KXNA - October, 2014

Change the Weather History Date:

Sunday, October 5, 2014

  Actual Average (KVBT) Record (KVBT)
Temperature  
Mean Temperature 62 °F -  
Max Temperature 77 °F 76 °F 88 °F (1954)
Min Temperature 48 °F 48 °F 30 °F (1979)
Degree Days  
Heating Degree Days 4    
Growing Degree Days 12 (Base 50)    
Moisture  
Dew Point 47 °F    
Average Humidity 59    
Maximum Humidity 86    
Minimum Humidity 37    
Precipitation  
Precipitation 0.00 in - - ()
Sea Level Pressure  
Sea Level Pressure 29.84 in    
Wind  
Wind Speed 7 mph (SW)    
Max Wind Speed 17 mph    
Max Gust Speed 24 mph    
Visibility 10 miles    
Events      
Averages and records for this station are not official NWS values.
T = Trace of Precipitation, MM = Missing Value Source: NWS Daily Summary

Daily Weather History Graph

Daily Weather History Graph

Search for Another Location

Airport or City:

Trip Planner

Search our weather history database for the weather conditions in past years. The results will help you decide how hot, cold, wet, or windy it might be!

Date:

Astronomy

Oct. 05, 2014 Rise Set
Actual Time 7:15 AM CDT 6:54 PM CDT
Civil Twilight 6:50 AM CDT 7:20 PM CDT
Nautical Twilight 6:20 AM CDT 7:50 PM CDT
Astronomical Twilight 5:50 AM CDT 8:20 PM CDT
Moon 5:08 PM CDT (10/5) 3:58 AM CDT (10/5)
Length of Visible Light 12h 30m
Length of Day
11h 39m
Waxing Gibbous, 89% of the Moon is Illuminated
Oct 5
Waxing Gibbous
Oct 8
Full
Oct 15
Last Quarter
Oct 23
New
Oct 30
First Quarter

Hourly Weather History & Observations

Time (CDT) Temp. Dew Point Humidity Pressure Visibility Wind Dir Wind Speed Gust Speed Precip Events Conditions
12:53 AM 52.0 °F 43.0 °F 71% 29.89 in 10.0 mi East 3.5 mph - N/A   Overcast
1:53 AM 50.0 °F 42.1 °F 74% 29.88 in 10.0 mi SSE 4.6 mph - N/A   Scattered Clouds
2:53 AM 50.0 °F 43.0 °F 77% 29.86 in 10.0 mi South 3.5 mph - N/A   Clear
3:53 AM 48.0 °F 44.1 °F 86% 29.85 in 10.0 mi Calm Calm - N/A   Clear
4:53 AM 48.0 °F 43.0 °F 83% 29.85 in 10.0 mi Calm Calm - N/A   Clear
5:53 AM 48.9 °F 41.0 °F 74% 29.84 in 10.0 mi SSW 5.8 mph - N/A   Clear
6:53 AM 51.1 °F 41.0 °F 68% 29.84 in 10.0 mi SW 10.4 mph - N/A   Clear
7:53 AM 53.1 °F 41.0 °F 64% 29.86 in 10.0 mi WSW 10.4 mph - N/A   Clear
8:53 AM 57.9 °F 43.0 °F 58% 29.86 in 10.0 mi SW 10.4 mph - N/A   Clear
9:53 AM 63.0 °F 45.0 °F 52% 29.87 in 10.0 mi WSW 12.7 mph - N/A   Clear
10:53 AM 66.9 °F 46.0 °F 47% 29.87 in 10.0 mi West 13.8 mph - N/A   Clear
11:53 AM 70.0 °F 46.0 °F 42% 29.86 in 10.0 mi West 10.4 mph - N/A   Clear
12:53 PM 72.0 °F 48.9 °F 44% 29.84 in 10.0 mi SW 8.1 mph - N/A   Clear
1:53 PM 73.9 °F 46.9 °F 38% 29.82 in 10.0 mi WSW 9.2 mph - N/A   Clear
2:53 PM 75.9 °F 48.0 °F 37% 29.80 in 10.0 mi WSW 11.5 mph - N/A   Clear
3:53 PM 75.9 °F 48.0 °F 37% 29.80 in 8.0 mi WSW 9.2 mph - N/A   Clear
4:53 PM 75.9 °F 48.0 °F 37% 29.80 in 10.0 mi WSW 10.4 mph - N/A   Clear
5:53 PM 73.0 °F 51.1 °F 46% 29.80 in 10.0 mi WSW 4.6 mph - N/A   Clear
6:53 PM 68.0 °F 50.0 °F 52% 29.80 in 7.0 mi SW 6.9 mph - N/A   Clear
7:53 PM 66.9 °F 50.0 °F 54% 29.81 in 10.0 mi SW 5.8 mph - N/A   Partly Cloudy
8:53 PM 66.0 °F 51.1 °F 59% 29.82 in 10.0 mi SSW 6.9 mph - N/A   Clear
9:53 PM 64.0 °F 53.1 °F 67% 29.82 in 10.0 mi SSW 8.1 mph - N/A   Clear
10:53 PM 64.0 °F 55.9 °F 75% 29.81 in 10.0 mi SSW 9.2 mph - N/A   Clear
11:53 PM 64.0 °F 57.0 °F 78% 29.87 in 9.0 mi NW 17.3 mph 24.2 mph N/A   Mostly Cloudy